Regional Weather Roundup
Issued by NWS State College, PA

Home | Current Version | Previous Version | Text Only | Print | Product List | Glossary On
Versions: 1 2 3 4 5 6 7 8 9 10 11 12 13 14 15 16 17 18 19 20 21 22 23 24 25 26 27 28 29 30 31 32 33 34 35 36 37 38 39 40 41 42 43 44 45 46 47 48 49 50
000
ASUS41 KCTP 290810
RWRCTP

REGIONAL WEATHER ROUNDUP
NATIONAL WEATHER SERVICE STATE COLLEGE PA
400 AM EDT FRI MAY 29 2015

Note: "fair" indicates few or no clouds below 12,000 feet with no
significant weather and/or obstructions to visibility.

* = STATION THAT DOES NOT REPORT PRECIPITATION /E.G. RAIN...SNOW...ETC/
    THUNDER OR FOG.

PAZ002>004-007>009-013>016-020>023-029>032-290900-
WESTERN PENNSYLVANIA

CITY           SKY/WX    TMP DP  RH WIND       PRES   REMARKS
ERIE           CLEAR     63  52  67 SE7       30.21F
MEADVILLE      LGT RAIN  61  51  70 E6        30.24S
FRANKLIN*      CLEAR     55  48  76 NE3       30.26S
NEW CASTLE     FAIR      55  55 100 CALM      30.22F
BEAVER COUNTY  NOT AVBL
BUTLER*        CLEAR     55  52  88 NE7       30.24S
PITTSBURGH INT CLEAR     63  54  72 E3        30.21S
PITTSBURGH     CLEAR     62  49  62 E3        30.20F
INDIANA*       MOCLDY    59  54  82 E7        30.27S
LATROBE        CLEAR     63  55  77 CALM      30.23S
WASHINGTON CO* CLEAR     55  54  94 CALM      30.22S
$$

PAZ004>006-010>012-017>019-024>028-033>037-041-042-045-046-049>053-290900-
CENTRAL PENNSYLVANIA

CITY           SKY/WX    TMP DP  RH WIND       PRES   REMARKS
BRADFORD       CLEAR     48  46  93 CALM      30.29S
DUBOIS         CLEAR     58  51  78 E7        30.26F
CLEARFIELD     CLEAR     51  49  92 CALM      30.28S
JOHNSTOWN      CLEAR     63  49  60 E5        30.27S
ALTOONA        MOCLDY    59  52  77 NE3       30.27S
STATE COLLEGE  PTCLDY    57  53  88 CALM      30.28R
WILLIAMSPORT   CLEAR     56  53  90 CALM      30.27S
SELINSGROVE    CLEAR     55  53  93 NW3       30.27S
FT INDIANTOWN  CLEAR     60  53  77 E2        30.26R HAZE
CAPITAL CITY   CLEAR     65  53  65 E7        30.25S
HARRISBURG     CLEAR     64  55  72 CALM      30.25R
YORK           CLEAR     59  57  93 CALM      30.24F
$$

PAZ038>040-043-044-047-048-054-055-060>062-067>071-290900-
EASTERN PENNSYLVANIA

CITY           SKY/WX    TMP DP  RH WIND       PRES   REMARKS
SCRANTON       CLEAR     56  51  84 E6        30.29S
MOUNT POCONO   CLEAR     58  32  37 N9        30.30F
ALLENTOWN      CLEAR     58  52  80 N3        30.27S
QUAKERTOWN*    SUNNY     57  54  88 CALM      30.28S
READING        CLEAR     62  53  72 CALM      30.25S
LANCASTER      CLEAR     63  52  67 E5        30.25S
COATESVILLE    SUNNY     64  55  72 CALM      30.27R
POTTSTOWN      PTCLDY    60  55  83 CALM      30.27S
BLUE BELL      CLEAR     61  55  82 CALM      30.25S
DOYLESTOWN     CLEAR     61  53  75 NE3       30.26S
WILLOW GROVE   NOT AVBL
NORTH PHILA    CLEAR     65  52  62 NE7       30.27R
PHILADELPHIA   PTCLDY    70  54  56 NE7       30.25S
$$


USA.gov is the U.S. government's official web portal to all federal, state and local government web resources and services.